Probability
84 58 65 71 65 3 0 0 0 3 13 13 10 3 6 6 3 23 74 16 26 65 77 94 100 100 100 100 100 100 100 100 100 100 100 100 100 100 100 87 84 71 71 68 74 81 81 81 84
52 52 65 52 19 0 0 0 3 10 23 16 6 6 10 35 42 74 81 39 39 65 74 65 100 100 100 100 100 100 100 100 100 100 100 100 100 100 100 87 87 74 71 71 74 81 81 81 81
52 52 39 10 0 0 0 0 6 19 16 13 10 10 10 42 61 87 81 55 55 68 77 100 100 100 100 100 100 100 100 100 100 100 100 100 100 97 90 81 87 74 81 77 81 87 81 84 90
45 35 32 0 0 0 0 0 3 19 16 19 16 19 35 71 87 90 77 55 52 74 81 100 100 100 100 100 100 100 100 100 100 100 100 100 97 97 90 84 84 84 87 81 84 81 77 90 94
35 6 0 0 0 0 0 3 16 35 35 32 26 42 52 84 87 87 81 58 55 58 77 90 100 100 100 100 100 100 100 100 100 100 100 97 97 90 90 94 87 87 94 90 97 84 84 87 97
6 3 0 0 0 0 0 13 23 35 48 45 39 52 87 94 94 90 77 58 52 58 61 100 100 100 100 100 100 100 100 100 100 100 100 97 97 97 97 97 97 94 94 84 90 87 94 100 90
0 0 0 0 0 0 0 10 13 39 42 58 55 55 87 100 94 90 74 58 52 55 68 87 68 90 100 100 100 100 100 100 100 100 100 100 100 100 94 94 94 94 94 90 87 81 87 100 97
0 0 0 0 0 0 0 10 19 39 32 45 58 68 87 94 94 94 90 77 71 74 71 84 81 84 90 90 100 100 100 100 100 100 100 100 100 94 94 94 94 90 94 94 94 84 90 90 94
0 0 0 0 0 0 0 0 13 26 32 52 68 81 94 90 94 94 94 90 84 84 90 84 84 94 90 84 94 97 97 97 97 90 84 81 84 84 87 90 87 90 87 81 90 90 74 81 71
0 0 0 0 0 0 0 3 10 35 32 35 61 84 87 90 90 90 90 81 81 84 90 90 90 90 84 84 87 90 90 87 84 77 77 77 81 77 52 48 71 81 84 74 74 74 74 71 61
0 0 0 0 0 0 0 0 13 23 26 35 61 84 84 90 90 90 87 81 74 90 87 94 84 84 84 94 84 87 81 81 77 68 68 68 55 39 39 45 48 58 55 61 65 68 61 52 58
0 0 0 0 0 0 0 0 0 23 26 42 65 84 84 87 90 84 77 74 71 84 90 81 90 90 84 87 81 77 77 74 55 48 42 39 29 29 23 32 29 35 42 39 45 61 61 58 52
0 0 0 0 0 0 0 0 3 13 13 35 61 81 81 84 77 77 74 74 77 87 84 81 84 84 90 84 74 65 65 45 45 42 32 19 16 16 16 23 23 19 23 19 42 29 45 45 42
0 0 0 0 0 0 0 0 3 13 29 42 61 77 81 77 74 71 77 68 74 74 81 81 77 77 84 81 77 65 48 42 32 19 16 13 13 13 13 19 19 16 19 16 23 16 32 32 35
0 0 0 0 0 0 0 0 0 19 26 52 55 65 68 68 65 71 61 68 65 68 71 74 74 77 74 74 61 42 42 29 23 13 10 10 6 6 10 13 10 10 13 23 13 16 10 13 13
0 0 0 0 0 0 0 0 3 16 26 39 52 55 61 65 55 58 52 58 55 68 74 71 58 77 74 68 55 42 32 26 13 6 6 6 6 3 3 3 3 10 10 10 10 6 6 6 6
0 0 0 0 0 0 0 0 6 16 16 29 35 39 39 55 42 45 52 48 55 58 61 65 61 68 68 58 45 35 29 16 10 3 3 3 3 3 3 3 3 3 3 3 3 3 3 3 3
0 0 0 0 0 0 0 0 0 6 3 13 29 35 35 29 32 39 52 52 48 48 52 58 55 65 61 48 42 32 16 13 6 3 3 3 3 3 3 3 3 3 3 3 3 3 3 3 3
0 0 0 0 0 0 0 0 0 6 10 10 23 26 29 32 26 29 39 42 39 42 48 48 48 48 45 45 32 23 16 13 3 3 6 3 3 3 3 3 3 3 3 0 3 3 3 0 0
0 0 0 0 0 0 0 3 3 6 6 10 23 26 29 29 32 35 45 48 45 52 52 48 45 42 45 45 39 23 16 10 6 6 6 6 3 3 3 3 3 3 3 0 0 0 0 0 0
0 0 0 0 0 0 0 3 10 19 13 10 16 13 16 23 35 48 52 42 39 42 42 32 48 52 45 42 29 19 19 13 6 6 6 3 3 3 3 3 3 3 0 0 0 0 0 0 0
0 0 0 0 0 0 0 0 10 13 13 13 16 13 16 16 32 42 42 48 39 42 42 39 42 52 48 42 19 16 16 13 6 10 6 3 3 3 3 3 3 0 0 0 0 0 0 0 0
0 0 0 0 0 0 0 0 0 6 3 10 10 13 13 16 26 42 45 42 42 35 42 35 52 52 52 39 35 32 16 16 10 10 10 10 3 3 3 3 3 0 0 0 0 0 0 0 0
0 0 0 0 0 0 0 0 0 0 3 3 10 6 19 16 29 39 48 52 58 48 39 39 42 52 42 39 35 39 26 26 23 13 3 10 6 3 3 3 3 3 0 0 0 0 0 0 0
0 0 0 0 0 0 0 0 0 0 0 0 3 10 13 23 32 48 58 71 68 55 45 35 45 45 42 42 42 48 52 55 48 39 16 13 3 3 3 3 3 3 0 0 0 0 0 0 0
0 0 0 0 0 0 0 0 0 0 3 3 3 10 16 29 26 39 58 71 65 52 58 48 45 45 42 45 48 55 52 35 29 52 16 13 6 3 3 3 3 3 0 0 0 0 0 0 0
0 0 0 0 0 0 0 0 0 6 3 3 3 6 10 29 32 39 61 65 65 65 61 55 58 65 52 48 61 61 55 45 39 39 39 19 10 3 6 3 0 0 0 0 0 0 0 0 0
0 0 0 0 0 0 0 0 0 0 0 3 3 6 13 19 39 48 55 48 65 71 65 68 68 71 68 65 65 52 61 58 52 45 35 29 16 10 6 3 0 0 0 0 0 0 0 0 0
0 0 0 0 0 0 0 0 0 3 6 3 3 3 6 13 19 42 42 58 71 65 68 74 71 74 74 71 81 74 74 55 55 48 35 35 29 16 10 6 0 0 0 0 0 0 0 0 0
0 0 0 0 0 0 0 0 0 3 3 3 3 3 13 10 13 23 42 55 68 65 61 68 77 77 71 77 81 84 81 71 65 55 42 45 39 23 13 3 3 0 0 0 0 0 0 0 0
Height
5915 5914 5913 5913 5913 5913 5911 5910 5909 5908 5907 5906 5905 5903 5902 5901 5902 5904 5904 5903 5903 5904 5905 5905 5906 5907 5908 5909 5909 5910 5910 5910 5910 5910 5910 5910 5910 5909 5909 5909 5909 5908 5908 5908 5907 5907 5906 5906 5905
5913 5912 5912 5911 5911 5911 5909 5907 5906 5905 5905 5903 5902 5901 5899 5898 5898 5899 5900 5900 5901 5902 5903 5904 5905 5906 5907 5907 5908 5909 5909 5909 5909 5909 5909 5909 5909 5909 5909 5909 5909 5908 5908 5907 5907 5906 5906 5905 5905
5912 5910 5910 5909 5909 5908 5906 5905 5904 5903 5902 5901 5900 5898 5897 5897 5896 5896 5897 5898 5899 5901 5902 5903 5904 5905 5905 5906 5907 5908 5908 5908 5908 5908 5908 5908 5908 5908 5908 5908 5908 5908 5907 5907 5906 5906 5905 5905 5904
5910 5909 5908 5908 5906 5904 5903 5902 5900 5899 5899 5898 5897 5896 5895 5895 5894 5894 5895 5896 5897 5898 5900 5901 5902 5903 5904 5905 5906 5907 5907 5907 5907 5907 5907 5907 5907 5907 5907 5907 5907 5907 5906 5906 5905 5905 5904 5904 5904
5908 5907 5906 5904 5902 5901 5900 5898 5897 5896 5895 5895 5894 5893 5893 5892 5892 5892 5892 5893 5895 5897 5898 5899 5900 5902 5903 5904 5905 5905 5906 5906 5906 5906 5906 5906 5906 5905 5905 5905 5905 5905 5905 5904 5903 5903 5903 5903 5902
5906 5905 5904 5902 5899 5898 5896 5895 5893 5893 5892 5891 5891 5890 5890 5889 5889 5889 5889 5891 5893 5895 5896 5897 5898 5900 5901 5902 5903 5904 5904 5904 5904 5904 5904 5904 5904 5904 5903 5903 5903 5903 5903 5902 5902 5901 5901 5901 5901
5905 5903 5901 5899 5897 5895 5893 5892 5890 5889 5888 5888 5887 5887 5886 5886 5886 5886 5887 5889 5890 5892 5894 5895 5897 5898 5899 5900 5901 5902 5902 5902 5902 5902 5902 5902 5902 5901 5901 5901 5901 5901 5901 5900 5899 5899 5899 5899 5899
5902 5901 5899 5897 5895 5893 5891 5889 5887 5886 5885 5884 5884 5883 5883 5883 5883 5883 5885 5886 5888 5890 5892 5893 5895 5896 5897 5898 5899 5900 5900 5900 5900 5900 5900 5900 5899 5899 5899 5899 5899 5899 5898 5898 5898 5897 5897 5897 5897
5900 5900 5897 5895 5893 5891 5888 5886 5884 5883 5881 5880 5880 5879 5879 5879 5879 5880 5882 5884 5885 5887 5889 5891 5893 5894 5895 5896 5896 5897 5898 5898 5898 5898 5898 5897 5897 5897 5896 5896 5896 5896 5896 5896 5896 5896 5895 5894 5894
5899 5897 5896 5893 5891 5889 5886 5884 5882 5879 5878 5876 5875 5875 5874 5874 5875 5877 5878 5880 5882 5884 5886 5888 5890 5891 5892 5894 5894 5895 5895 5895 5896 5896 5895 5895 5895 5894 5894 5894 5894 5894 5894 5894 5894 5893 5893 5893 5892
5897 5896 5894 5891 5889 5886 5884 5881 5879 5876 5874 5873 5871 5871 5870 5870 5871 5872 5874 5876 5879 5881 5883 5885 5887 5889 5890 5891 5892 5893 5893 5893 5893 5893 5893 5893 5892 5892 5892 5892 5892 5892 5891 5891 5891 5891 5891 5890 5890
5896 5894 5892 5890 5887 5884 5881 5879 5876 5873 5871 5869 5867 5866 5866 5866 5866 5868 5869 5872 5875 5877 5880 5882 5885 5886 5888 5889 5890 5890 5891 5891 5891 5891 5891 5891 5891 5891 5890 5890 5890 5890 5889 5889 5889 5889 5889 5889 5888
5896 5893 5891 5888 5885 5882 5879 5876 5873 5870 5867 5864 5862 5861 5861 5862 5862 5863 5865 5868 5871 5874 5877 5879 5882 5883 5885 5887 5888 5888 5888 5888 5889 5889 5889 5889 5889 5889 5889 5888 5888 5888 5887 5887 5887 5887 5887 5887 5887
5895 5892 5889 5886 5883 5880 5876 5873 5870 5867 5863 5860 5858 5857 5857 5857 5858 5860 5863 5866 5868 5871 5874 5876 5879 5881 5883 5884 5885 5886 5886 5887 5887 5888 5887 5887 5887 5887 5887 5887 5887 5886 5886 5886 5885 5885 5885 5885 5884
5893 5891 5888 5885 5881 5878 5874 5871 5867 5863 5860 5857 5855 5854 5853 5854 5855 5857 5859 5862 5865 5868 5871 5874 5876 5878 5880 5882 5883 5883 5884 5885 5885 5886 5886 5886 5886 5886 5886 5886 5885 5885 5884 5884 5884 5883 5883 5883 5883
5892 5890 5888 5884 5880 5876 5874 5870 5865 5861 5858 5855 5853 5851 5850 5850 5851 5854 5856 5859 5861 5864 5867 5870 5873 5875 5877 5879 5880 5881 5882 5883 5884 5884 5885 5885 5884 5884 5884 5884 5884 5883 5883 5882 5882 5882 5881 5881 5881
5892 5890 5887 5883 5879 5875 5872 5868 5864 5859 5856 5853 5850 5848 5848 5848 5848 5850 5852 5855 5858 5861 5863 5867 5870 5872 5874 5877 5878 5880 5881 5882 5882 5883 5883 5883 5883 5883 5883 5883 5883 5882 5882 5881 5881 5880 5880 5880 5879
5892 5888 5885 5882 5877 5874 5870 5866 5862 5858 5855 5851 5849 5847 5846 5845 5846 5848 5850 5852 5855 5857 5860 5864 5867 5870 5872 5874 5876 5878 5879 5881 5881 5882 5882 5883 5882 5882 5882 5882 5881 5881 5881 5880 5880 5879 5879 5878 5878
5889 5886 5883 5880 5876 5873 5869 5865 5862 5857 5854 5850 5848 5846 5845 5845 5845 5846 5848 5850 5852 5854 5858 5861 5865 5868 5870 5873 5875 5877 5879 5880 5880 5881 5881 5881 5882 5881 5881 5881 5881 5880 5880 5879 5879 5878 5878 5877 5877
5887 5885 5882 5879 5875 5871 5868 5865 5861 5857 5854 5850 5848 5846 5845 5844 5844 5844 5846 5848 5850 5853 5856 5860 5863 5866 5869 5871 5874 5876 5877 5878 5879 5880 5880 5880 5881 5881 5880 5880 5880 5879 5879 5878 5878 5878 5877 5876 5876
5886 5884 5881 5877 5873 5870 5868 5864 5861 5858 5854 5851 5848 5847 5846 5845 5844 5845 5846 5847 5849 5852 5855 5858 5862 5865 5868 5870 5873 5874 5876 5877 5878 5879 5879 5880 5880 5880 5880 5879 5879 5879 5878 5878 5877 5877 5876 5876 5875
5885 5882 5879 5876 5872 5870 5868 5865 5861 5858 5855 5852 5850 5848 5846 5845 5845 5845 5846 5847 5849 5851 5855 5857 5860 5864 5866 5869 5871 5873 5875 5876 5877 5878 5878 5879 5879 5879 5879 5879 5878 5878 5877 5877 5876 5876 5875 5875 5874
5882 5880 5877 5874 5871 5869 5867 5865 5863 5858 5856 5853 5851 5849 5847 5846 5845 5846 5846 5848 5849 5852 5854 5857 5859 5862 5865 5868 5870 5872 5873 5875 5876 5877 5877 5878 5878 5878 5878 5877 5877 5877 5876 5876 5875 5875 5874 5873 5872
5880 5878 5876 5873 5871 5870 5867 5865 5863 5859 5857 5854 5852 5849 5848 5847 5847 5847 5847 5849 5850 5852 5854 5857 5859 5862 5864 5867 5869 5871 5872 5874 5875 5875 5876 5876 5876 5876 5876 5876 5875 5875 5875 5874 5874 5873 5872 5871 5870
5878 5877 5877 5875 5873 5871 5866 5864 5863 5859 5857 5855 5852 5850 5849 5849 5848 5848 5848 5849 5851 5853 5854 5857 5859 5861 5864 5866 5868 5869 5871 5872 5873 5874 5874 5874 5875 5875 5874 5874 5874 5873 5873 5872 5871 5871 5870 5869 5868
5875 5875 5875 5873 5872 5869 5865 5863 5862 5859 5857 5855 5853 5852 5851 5850 5849 5849 5850 5850 5852 5853 5855 5856 5859 5861 5863 5865 5866 5868 5869 5870 5871 5872 5872 5872 5872 5872 5872 5872 5871 5871 5870 5869 5869 5868 5867 5866 5865
5872 5871 5870 5869 5868 5866 5865 5862 5859 5858 5856 5855 5853 5852 5851 5851 5851 5850 5851 5851 5852 5853 5854 5856 5858 5860 5862 5863 5865 5866 5867 5868 5869 5869 5869 5869 5870 5870 5869 5869 5868 5867 5867 5866 5865 5864 5863 5862 5861
5869 5867 5866 5866 5865 5865 5864 5861 5859 5856 5855 5854 5853 5852 5852 5851 5851 5851 5852 5852 5853 5853 5854 5856 5857 5859 5860 5861 5862 5864 5865 5865 5866 5866 5866 5866 5866 5866 5866 5865 5864 5864 5863 5862 5861 5860 5858 5857 5856
5864 5864 5863 5863 5862 5861 5861 5862 5855 5854 5853 5852 5852 5851 5851 5851 5851 5851 5851 5852 5852 5853 5854 5855 5856 5857 5858 5859 5860 5861 5862 5862 5862 5862 5862 5862 5862 5862 5861 5861 5860 5859 5858 5857 5856 5854 5853 5852 5850
5860 5860 5859 5859 5858 5857 5857 5859 5852 5851 5850 5850 5849 5849 5849 5850 5850 5850 5850 5850 5851 5851 5852 5853 5854 5855 5856 5856 5857 5858 5858 5858 5858 5858 5858 5858 5857 5857 5856 5855 5854 5853 5852 5851 5850 5848 5847 5845 5844
Wind_Speed
11 12 12 12 13 13 15 15 15 15 14 14 14 13 11 9 11 14 14 13 13 11 10 10 9 9 9 9 8 7 6 4 3 2 2 1 2 2 2 3 3 3 3 3 3 3 3 3 2
12 12 13 13 13 14 16 16 16 15 15 14 13 13 11 8 10 14 14 14 13 11 11 10 10 10 9 9 9 8 7 5 4 2 2 1 0 1 1 2 3 3 3 3 3 3 2 2 2
12 13 13 14 14 14 17 17 17 16 15 14 13 12 9 7 9 11 13 14 14 12 11 10 10 10 10 10 9 8 7 6 4 4 3 2 2 2 2 3 3 3 3 3 3 3 2 2 1
13 13 14 14 15 16 17 18 18 17 16 14 12 10 7 8 9 11 13 14 14 13 12 11 11 11 11 10 9 8 7 7 6 5 4 4 4 4 4 4 5 5 5 4 4 3 3 2 2
13 14 14 15 16 17 17 18 18 17 16 14 12 10 9 9 11 13 14 15 15 14 13 12 12 12 12 11 10 8 8 7 6 5 5 5 5 5 6 5 5 5 5 5 5 4 4 3 3
13 13 13 14 16 17 17 17 17 17 16 14 13 11 11 11 11 14 15 16 16 15 14 13 13 13 12 11 10 9 8 7 7 6 6 6 6 7 7 6 6 7 7 6 6 5 5 4 4
13 13 13 14 15 16 16 16 16 16 15 14 13 12 12 13 13 14 16 16 16 15 14 14 14 13 12 12 10 10 9 8 7 6 7 7 7 7 7 7 7 7 7 7 6 5 5 5 5
13 13 13 13 13 14 15 15 15 14 14 14 13 12 13 14 15 16 16 16 17 16 16 15 15 14 13 12 10 9 9 8 8 8 8 8 8 8 8 8 8 8 7 7 6 4 4 4 5
13 13 12 12 12 13 14 13 14 13 13 12 12 13 13 15 16 17 17 17 16 17 17 16 16 15 14 13 11 10 9 9 9 9 9 9 9 9 9 8 8 8 7 7 6 5 5 5 5
14 13 12 13 13 14 14 14 14 13 13 12 12 13 14 15 17 19 19 19 18 19 19 19 18 17 16 14 12 11 10 10 10 10 10 9 9 8 8 8 8 8 8 7 7 6 6 5 5
14 13 13 13 14 15 15 15 15 14 14 14 13 13 14 17 19 20 21 22 21 21 20 20 19 18 17 15 13 12 10 10 9 9 9 8 8 7 7 7 7 7 7 6 6 6 6 5 5
13 13 13 14 15 16 16 16 15 15 15 14 13 13 15 18 20 22 23 24 23 23 22 21 20 19 18 15 13 12 10 9 9 8 8 8 7 7 7 6 6 6 6 6 6 6 6 6 5
13 13 14 15 17 18 19 18 16 15 15 14 13 13 15 18 21 23 23 24 24 24 24 23 21 19 17 15 13 12 10 8 7 7 7 6 6 6 6 5 5 5 5 5 6 6 6 6 6
12 14 16 17 19 19 20 19 16 15 15 13 12 12 13 16 20 22 24 24 24 25 24 24 21 19 17 15 13 11 9 8 6 6 5 5 5 5 5 4 4 4 5 5 5 6 6 7 7
13 15 17 18 20 20 20 18 17 15 14 12 11 11 12 16 19 22 24 25 24 24 25 24 21 19 17 15 13 11 9 8 6 5 5 4 4 3 3 3 3 4 5 5 5 5 5 6 6
14 16 17 19 20 20 20 18 17 15 13 11 9 9 10 14 18 21 24 25 25 25 25 23 21 19 17 15 13 11 9 7 6 5 4 3 3 3 2 2 3 3 4 5 5 5 5 6 6
15 15 16 18 19 20 19 17 17 15 13 11 9 8 9 12 15 17 21 24 25 25 24 23 21 19 16 14 12 10 9 8 6 5 4 3 3 2 2 2 2 3 3 4 4 5 5 5 6
12 14 16 17 19 20 19 17 16 14 12 11 8 6 7 8 11 15 18 21 23 24 23 22 20 18 16 14 12 10 9 7 6 5 4 3 2 2 1 1 1 2 3 4 4 4 5 5 6
13 14 15 17 18 19 18 16 15 14 13 10 7 5 4 5 8 13 16 18 20 22 22 22 19 18 15 13 12 10 9 7 6 5 4 2 2 1 1 0 1 2 3 4 4 4 4 5 5
13 14 16 17 17 17 17 15 14 13 13 11 7 5 3 4 6 10 13 15 18 20 19 18 17 16 14 14 12 10 9 8 6 5 4 3 2 2 1 0 1 2 3 4 4 4 4 5 5
12 13 15 16 16 16 16 15 14 13 13 12 8 5 4 2 4 8 11 12 15 16 17 17 17 16 15 13 12 11 9 8 7 6 5 4 3 2 1 1 1 2 3 4 4 4 5 5 5
11 13 14 15 14 15 14 14 14 12 12 12 9 6 4 2 2 6 9 11 13 16 16 16 17 16 15 13 12 11 9 8 7 6 5 4 4 3 2 1 1 1 2 3 4 4 5 5 6
11 13 13 14 13 12 13 12 13 12 12 11 10 7 4 1 2 4 7 10 12 13 14 15 16 15 14 13 11 10 9 8 7 6 6 5 4 3 3 2 2 3 3 4 4 5 6 6 7
12 12 13 13 12 11 11 10 10 10 11 10 9 7 5 2 1 4 6 9 10 11 13 14 14 13 12 12 11 10 9 8 7 7 6 5 5 4 4 4 4 5 5 6 6 7 7 8 9
12 12 12 11 11 11 12 10 9 8 9 9 8 7 5 3 1 3 5 7 9 10 12 13 13 12 12 11 11 10 9 8 8 7 7 6 6 6 6 6 7 7 8 8 9 9 10 10 11
12 12 10 10 10 11 12 10 9 9 8 7 7 6 5 4 2 1 4 5 7 10 11 13 13 12 11 11 11 10 10 9 9 9 8 8 8 9 9 9 9 10 11 11 11 12 12 13 13
14 13 12 12 11 10 10 12 11 10 8 7 6 6 4 3 1 1 3 4 6 7 10 12 13 12 11 11 11 11 11 11 11 10 10 10 11 12 12 12 13 13 13 14 15 15 16 16 16
14 13 13 11 10 9 10 11 12 11 9 8 6 5 4 4 2 2 3 4 6 7 9 11 11 11 11 11 11 12 12 13 13 13 13 13 14 15 15 16 16 17 17 17 18 19 19 19 19
14 13 12 11 11 9 9 11 14 12 11 10 8 7 6 5 4 3 4 6 7 8 9 10 11 11 12 12 13 14 14 15 15 16 16 17 18 18 19 19 20 20 20 21 21 22 22 22 22
14 13 12 11 11 10 9 12 13 12 11 11 10 9 8 7 7 6 6 7 8 9 11 12 13 13 14 15 15 16 17 17 18 19 19 20 21 22 22 23 23 23 23 24 24 24 25 25 25
Wind_Direction
320 316 313 312 312 311 308 309 310 310 310 308 309 308 301 279 244 226 223 220 210 205 206 202 206 210 213 216 219 217 212 202 190 176 152 113 87 70 60 49 39 32 30 30 31 35 35 34 39
321 316 314 312 311 308 305 308 309 309 311 311 310 307 298 274 245 227 220 216 211 207 210 206 208 213 216 220 222 223 219 213 209 210 216 220 298 11 17 11 8 6 1 2 7 11 14 16 17
324 318 314 311 307 300 300 303 304 306 308 311 312 306 292 269 237 225 219 214 211 209 211 209 210 212 214 217 220 224 222 220 223 229 240 253 276 296 313 324 330 332 335 336 335 336 337 338 332
324 319 314 310 305 302 299 300 300 303 304 306 309 304 287 260 238 226 219 212 208 208 212 212 214 214 214 217 220 226 230 233 233 236 246 261 274 286 299 309 316 316 318 320 321 314 306 303 288
326 321 315 311 305 304 302 300 299 300 301 302 302 297 278 258 243 225 217 211 207 212 215 215 216 217 217 219 222 227 235 238 239 244 254 269 282 290 297 304 308 311 311 309 309 307 293 287 275
328 324 318 310 308 308 304 302 300 299 298 296 294 287 271 257 241 223 217 210 211 216 217 218 218 217 218 222 227 234 241 244 247 256 267 278 288 293 297 301 303 307 307 303 301 300 288 273 269
332 330 321 315 312 311 309 307 303 300 297 293 289 280 265 252 237 225 216 211 214 217 218 219 222 219 223 226 231 240 247 251 256 266 276 283 292 295 295 298 302 304 304 303 299 297 291 272 263
340 338 332 326 322 318 317 313 311 306 299 291 282 275 262 248 237 225 217 217 218 219 218 221 225 222 225 229 235 243 250 257 263 271 277 285 290 292 293 296 299 301 301 302 300 302 301 276 262
348 347 341 333 329 326 325 320 316 310 302 290 278 270 260 245 234 227 223 221 218 218 219 222 225 225 229 233 237 243 252 259 265 273 279 283 285 286 288 290 293 296 298 298 295 297 298 283 268
350 349 342 337 334 331 329 324 319 311 304 293 275 265 255 243 231 225 221 221 218 216 220 222 224 227 232 235 238 244 252 260 266 272 278 282 283 288 289 293 291 291 293 293 289 289 293 288 274
353 348 342 338 336 333 330 327 321 312 304 297 277 263 252 242 228 222 218 218 217 214 217 219 222 227 233 236 241 245 249 258 267 275 277 281 286 292 293 291 291 290 293 293 288 290 289 286 277
353 347 342 339 337 334 332 329 320 313 303 296 278 262 247 234 225 219 218 215 214 214 215 217 223 227 232 236 239 242 246 254 264 268 268 274 278 286 290 292 292 297 297 295 294 293 291 287 281
352 346 341 336 333 331 330 327 320 315 308 296 279 262 242 230 224 218 216 214 210 212 214 217 220 225 228 231 234 236 241 250 258 260 261 265 271 280 285 291 299 303 306 307 305 299 295 290 285
347 342 338 335 333 331 329 328 323 316 312 301 281 259 234 224 221 217 215 214 214 215 214 215 219 223 225 227 228 230 235 240 242 250 256 258 262 273 280 285 293 301 307 310 308 302 297 292 288
342 337 336 337 336 335 335 334 331 322 317 307 283 256 235 224 220 218 214 213 215 215 214 215 220 221 222 225 225 225 226 230 236 242 245 249 257 271 282 287 298 307 311 312 314 309 304 300 293
341 341 340 337 339 339 339 339 336 329 321 315 295 262 242 227 221 218 216 212 213 212 212 215 217 217 218 220 220 220 222 222 224 227 234 245 256 269 277 287 300 312 318 318 316 312 308 303 300
342 339 335 335 338 341 342 340 339 336 328 324 313 277 249 232 221 217 216 213 212 210 211 212 215 215 213 214 214 215 216 214 211 213 224 239 251 262 270 288 308 325 331 329 323 317 310 306 305
326 331 334 335 338 341 343 343 341 343 337 332 322 289 254 233 216 213 211 210 209 209 210 212 212 213 211 209 207 209 207 203 202 204 215 229 240 254 274 292 314 331 340 342 337 329 321 316 312
328 331 332 332 334 339 344 348 348 348 348 342 332 309 263 229 216 210 205 207 207 206 207 209 209 209 205 204 204 204 202 198 197 200 207 213 212 218 235 275 339 347 349 348 346 343 337 331 325
329 332 331 330 332 339 345 349 354 354 356 351 344 330 289 243 227 212 208 207 210 208 206 204 198 200 200 202 202 201 198 196 197 198 198 198 198 192 186 168 26 9 6 1 358 352 343 336 333
326 329 329 330 332 338 345 352 356 359 0 359 353 342 326 282 221 207 200 197 199 198 196 195 193 196 199 200 202 200 197 196 196 195 198 201 195 188 193 205 347 2 1 356 356 355 350 345 338
319 323 329 332 336 339 345 348 350 355 359 1 360 347 331 308 226 193 191 195 193 188 190 195 195 197 199 198 198 197 196 195 194 197 200 200 199 204 212 231 276 331 342 347 348 348 344 338 333
311 321 329 334 333 335 338 347 347 353 356 0 5 3 360 354 175 177 178 185 187 190 194 193 194 196 197 196 195 195 197 197 197 202 204 206 213 221 229 244 272 298 311 319 324 326 325 324 323
308 319 329 337 340 336 329 340 341 350 356 358 5 13 19 31 140 172 178 180 186 188 191 189 191 193 195 197 198 199 201 203 206 210 213 218 228 239 251 262 276 288 294 299 304 307 309 310 310
308 319 335 336 333 318 314 322 327 336 348 355 3 13 20 23 65 158 174 186 194 197 195 196 196 195 197 201 205 205 209 212 216 221 226 232 242 251 260 269 278 283 286 290 294 297 298 301 303
301 308 308 308 308 310 312 309 312 322 335 344 350 3 11 15 30 145 171 183 198 204 203 202 202 205 206 209 212 215 220 224 230 235 240 247 253 259 265 271 276 279 283 286 289 292 293 295 296
293 296 296 302 310 316 305 301 301 306 314 326 336 345 349 360 7 207 202 205 208 208 209 208 212 214 214 216 221 227 232 237 241 245 249 256 261 265 269 272 275 278 281 284 286 288 289 291 292
286 290 293 296 296 299 301 302 291 293 299 306 309 315 323 330 333 262 228 222 222 220 217 213 216 219 221 225 231 237 243 247 250 253 256 261 266 269 272 274 275 277 280 282 283 285 287 288 289
285 286 285 287 283 289 289 287 281 284 286 289 291 291 291 293 289 290 262 242 236 233 230 228 227 229 232 236 241 245 250 254 256 259 262 265 268 271 274 275 276 278 279 281 283 285 285 286 287
275 280 282 284 286 290 286 284 280 278 278 279 279 280 280 277 277 277 277 265 254 247 242 238 238 238 240 244 248 252 255 258 260 263 266 268 271 273 275 277 277 279 281 282 283 285 285 286 286